Weather observations for the past three days for
Burbank - Bob Hope Airport
Metric (Imperial)
Date Time (pdt) Wind (kph) Vis. (km) Weather Sky Cond. Temperature (ºC) Relative Humidity Wind Chill (°C) Heat Index (°C) Pressure Precipitation (cm)
Air Dwpt 6 hour altimeter (cm) sea level (mb) 1 hr 3 hr 6 hr
Max. Min.
21 08:53 Calm 16.09 Fair CLR 20 12.2 61% 75.67 1007.4
21 07:53 Calm 16.09 Fair CLR 17.8 12.8 73% 75.64 1007.3
21 06:53 Calm 16.09 Fair CLR 16.7 12.8 78% 75.64 1007.2
21 05:53 Calm 16.09 Fair CLR 15.6 12.2 80% 75.62 1006.9
21 04:53 Calm 16.09 Fair CLR 15.6 12.2 18.9 15.6 80% 75.59 1006.5
21 03:53 Calm 16.09 Fair CLR 16.1 12.2 78% 75.59 1006.4
21 02:53 E 6 16.09 Fair CLR 16.1 12.2 78% 75.59 1006.6
21 01:53 E 6 16.09 Fair CLR 16.7 12.8 78% 75.62 1006.7
21 00:53 SE 9 16.09 Fair CLR 17.2 12.8 76% 75.62 1006.9
20 23:53 E 13 16.09 Fair CLR 18.3 11.7 66% 75.62 1006.9
20 22:53 SE 9 16.09 Fair CLR 18.9 11.7 25.6 18.3 63% 75.62 1007.0
20 21:53 E 11 16.09 Fair CLR 19.4 11.7 61% 75.62 1007.0
20 20:53 SE 13 16.09 Fair CLR 19.4 12.2 63% 75.62 1006.9
20 19:53 S 13 16.09 Fair CLR 21.7 12.8 57% 75.59 1006.4
20 18:53 S 15 16.09 Fair CLR 23.3 13.3 54% 75.59 1006.4
20 17:53 S 13 16.09 Fair CLR 25 12.8 47% 26 75.57 1006.3
20 16:53 S 19 16.09 Fair CLR 25.6 13.3 27.2 22.8 47% 26 75.59 1006.7
20 15:53 S 19 16.09 Fair CLR 26.7 13.3 44% 27 75.64 1007.0
20 14:53 S 19 16.09 Fair CLR 26.7 13.9 45% 27 75.67 1007.4
20 13:53 S 19 16.09 Fair CLR 26.1 14.4 49% 27 75.72 1008.2
20 12:53 SE 15 16.09 Fair CLR 26.1 15 50% 27 75.74 1008.5
20 11:53 Vrbl 11 16.09 Fair CLR 24.4 14.4 54% 26 75.77 1008.8
20 10:53 S 11 16.09 Fair CLR 22.8 14.4 23.3 15.6 59% 75.77 1009.0
20 09:53 S 6 16.09 Fair CLR 20.6 13.9 66% 75.77 1009.2
20 08:53 Vrbl 11 16.09 Fair CLR 18.3 13.9 76% 75.77 1009.1
20 07:53 SE 7 14.48 Fair CLR 16.7 13.9 84% 75.77 1009.1
20 06:53 S 6 16.09 A Few Clouds FEW016 15.6 13.3 86% 75.77 1009.1
20 05:53 Calm 16.09 Fair CLR 15.6 13.3 86% 75.72 1008.1
20 04:53 Calm 16.09 Fair CLR 15.6 13.3 17.2 15.6 86% 75.69 1008.1
20 03:53 Calm 16.09 Fair CLR 16.1 13.3 84% 75.72 1008.4
20 02:53 Calm 16.09 Fair CLR 16.1 13.9 87% 75.72 1008.4
20 01:53 E 7 16.09 Fair CLR 16.1 13.9 87% 75.72 1008.4
20 00:53 SE 9 16.09 Fair CLR 16.7 13.9 84% 75.77 1009.1
19 23:53 SE 9 16.09 Fair CLR 16.7 13.9 84% 75.79 1009.3
19 22:53 SE 9 16.09 Fair CLR 17.2 13.9 23.9 17.2 81% 75.79 1009.4
19 21:53 S 9 16.09 Fair CLR 17.2 13.9 81% 75.82 1009.7
19 20:53 S 13 16.09 Fair CLR 18.3 13.9 76% 75.77 1009.0
19 19:53 S 13 16.09 Fair CLR 19.4 13.9 71% 75.72 1008.5
19 18:53 S 15 16.09 Fair CLR 22.2 13.9 59% 75.72 1008.3
19 17:53 S 19 16.09 Fair CLR 23.3 14.4 57% 75.72 1008.3
19 16:53 S 19 16.09 Fair CLR 23.9 14.4 24.4 21.1 55% 25 75.74 1008.8
19 15:53 S 19 16.09 Fair CLR 24.4 14.4 54% 26 75.77 1008.9
19 14:53 S 19 16.09 Fair CLR 24.4 13.9 52% 26 75.79 1009.4
19 13:53 S 13 16.09 Fair CLR 23.9 13.9 54% 25 75.82 1009.5
19 12:53 S 19 16.09 Fair CLR 23.3 13.9 56% 75.84 1009.9
19 11:53 S 13 16.09 Fair CLR 22.2 13.9 59% 75.87 1010.2
19 10:53 S 9 16.09 A Few Clouds FEW022 21.1 13.9 21.1 16.7 64% 75.87 1010.2
19 09:53 SW 7 8.05 Overcast with Haze OVC017 18.9 13.9 73% 75.87 1010.3
19 08:53 S 6 11.27 Overcast OVC015 17.8 13.9 78% 75.84 1010.2
19 07:53 SW 7 11.27 Overcast OVC014 17.2 13.9 81% 75.82 1009.6
19 06:53 S 9 11.27 Overcast OVC013 17.2 13.9 81% 75.77 1009.1
19 05:53 S 7 11.27 Overcast OVC013 17.2 13.9 81% 75.74 1008.8
19 04:53 Calm 8.05 Overcast with Haze OVC012 16.7 13.9 17.2 16.7 84% 75.72 1008.3
19 03:53 Calm 0.00 Overcast OVC012 17.2 14.4 84% 75.69 1008.0
19 02:53 S 9 16.09 Overcast OVC011 17.2 14.4 84% 75.69 1007.9
19 01:53 Calm 16.09 Overcast OVC011 17.2 14.4 84% 75.69 1008.0
19 00:53 S 9 16.09 Overcast OVC011 16.7 14.4 86% 75.72 1008.4
18 23:53 SE 9 0.00 Fair CLR 16.7 14.4 86% 75.74 1008.7
18 22:53 SE 9 16.09 Fair CLR 17.2 14.4 25.6 17.2 84% 75.74 1008.6
18 21:53 SE 13 16.09 Fair CLR 18.3 14.4 78% 75.72 1008.3
18 20:53 S 11 16.09 Fair CLR 18.3 14.4 78% 75.67 1007.8
18 19:53 S 15 16.09 Fair CLR 19.4 14.4 73% 75.62 1007.1
18 18:53 S 19 16.09 Fair CLR 21.7 14.4 63% 75.57 1006.4
18 17:53 S 19 16.09 Fair CLR 23.9 14.4 55% 25 75.54 1006.0
18 16:53 S 17 16.09 Fair CLR 25 13.9 26.1 18.9 50% 26 75.57 1006.2
18 15:53 S 13 16.09 Fair CLR 25.6 13.9 48% 26 75.59 1006.5
18 14:53 SW 13 16.09 Fair CLR 25.6 13.9 48% 26 75.59 1006.7
18 13:53 SE 9 16.09 Fair CLR 24.4 13.9 52% 26 75.62 1006.9
18 12:53 E 11 16.09 Fair CLR 22.8 13.9 57% 75.67 1007.4
18 11:53 E 13 16.09 A Few Clouds FEW018 20.6 13.3 63% 75.69 1007.9
18 10:53 E 13 16.09 Mostly Cloudy BKN017 19.4 13.3 19.4 16.1 68% 75.69 1007.9
18 09:53 S 15 16.09 Mostly Cloudy BKN013 17.2 13.3 78% 75.67 1007.7
Date Time (pdt) Wind (kph) Vis. (km) Weather Sky Cond. Air Dwpt Max. Min. Relative Humidity Wind Chill (°C) Heat Index (°C) altimeter (cm) sea level (mb) 1 hr 3 hr 6 hr
6 hour
Temperature (ºC) Pressure Precipitation (cm)